STARLINK-5824, 57067

Orbit data source: Space-Track

STARLINK-5824, 57067 is a payload satellite owned by SpaceX/Seattle (US) in LEO that was launched on Thu, 22 Jun 2023 UTC via an FALCON 9 launch vehicle from the Air Force Western Test Range (AFWTR). Payload-class satellites include a variety of spacecraft equipped with specific instruments for various scientific and technological missions. These include communications satellites like Starlink; space stations such as the ISS; scientific satellites like the Hubble; Earth observation satellites from companies like Planet Labs, Umbra, and HawkEye 360; GPS; miniature CubeSats for education and research; and military/defense satellites.

Loading next visibility...
Identifier
57067, 2023-088V
Orbit
LEO
Country
Flag of USUS
Related business
Manufacturer
SpaceX/Seattle
Mission
Operational Commercial Communications
Bus & Motor
STARLINK, Unknown motor
Mass
305 kg wet, ~290 kg dry
Launch date (UTC)
Icon of a cake. It is the launch day of the satellite!2023-06-22 (3 years ago)
Launch vehicle
FALCON 9
Launch site
Air Force Western Test Range (AFWTR)
Object type
Payload
Rocket body
Debris
Shape & HBR
Box + 1 Pan, 10.1 m
Radar Cross Section
11.087 m², Large (>1 m²)

Expand to show TLE details & history
Last TLE update: 2 days ago

TLE from 2 days ago
0 STARLINK-5824
1 57067U 23088V   26171.29609647  .00000223  00000-0  17647-4 0  9992
2 57067  43.0002 251.2713 0001899 276.0315  84.0320 15.27579268166022
Epoch: 2026-06-20T07:06Z
TLE epoch observation values (Epoch: 2026-06-20T07:06:22.735Z)
Latitude
-0.00001°
Longitude
-123.8362°
Altitude
482.692 km
Speed
7.626 km/s
True Right ascension
16h 45m 05s
True Declination
0° 00' 00"
Sunlit
Object was in full shadow at epoch
Visualization orbit readout
Latitude
Unknown
Longitude
Unknown
Altitude
Unknown
Speed
Unknown
Apparent Right ascension
Unknown
Apparent Declination
Unknown
Sunlit
N/A
Visualization observer readout
Local Sidereal Time
00:39:29
Azimuth
Unknown
Elevation
Unknown
Doppler factor
Unknown
Orbital elements
Apogee altitude
486.3 km
Perigee altitude
483.693 km
Semi-major axis
6,863.133 km
Eccentricity
0.00019
Inclination
43.0002°
RAAN
251.2713°
Arg. of periapsis
276.0315°
True anomaly
84.05364°
Mean anomaly
84.032°
Eccentric anomaly
84.04282°
Mean motion
3.81733 °/min
Orbital period
94.31 mins
BSTAR
0.000017647
Loading maneuver chart data...
Computing Atmospheric mass density...
Loading historical data...
Loading historical data...
Loading historical data...
Loading historical data...
Loading historical data...
Loading historical data...
Loading historical data...

Documentation

Showing up to 5 results
|